Regional Weather Roundup
Issued by NWS

Home | Current Version | Previous Version | Text Only | Print | Product List | Glossary Off
Versions: 1 2 3 4 5 6 7 8 9 10 11 12 13 14 15 16 17 18 19 20 21 22 23 24 25 26 27 28 29 30 31 32 33 34 35 36 37 38 39 40 41 42 43 44 45 46 47 48 49 50

000
ASUS43 KLMK 260502
RWRKY
KENTUCKY REGIONAL WEATHER ROUNDUP
NATIONAL WEATHER SERVICE LOUISVILLE KY
100 AM EDT SAT JUL 26 2014

NOTE "FAIR" INDICATES FEW OR NO CLOUDS BELOW 12,000 FEET
WITH NO SIGNIFICANT WEATHER AND/OR OBSTRUCTIONS TO VISIBILITY.

KYZ001>023-026-027-061>063-070>075-260600-
WESTERN AND SOUTH CENTRAL KENTUCKY

CITY           SKY/WX    TMP DP  RH WIND       PRES   REMARKS
PADUCAH        CLEAR     68  63  84 SE3       29.97S
HENDERSON      CLEAR     61  57  88 CALM      30.00R
OWENSBORO      CLEAR     65  61  87 CALM      30.01R
HOPKINSVILLE   PTCLDY    70  64  81 SW2       30.01R
BOWLING GREEN  PTCLDY    72  62  71 CALM      30.02S
GLASGOW        PTCLDY    66  60  80 CALM      30.03S
$$

KYZ024-025-028>034-038-045-046-053-260600-
NORTH CENTRAL KENTUCKY

CITY           SKY/WX    TMP DP  RH WIND       PRES   REMARKS
LOUISVILLE/SDF MOCLDY    74  60  61 S5        30.01R
LOUISVILLE/LOU CLOUDY    73  60  63 CALM      30.02R
FORT KNOX      MOCLDY    65  62  90 CALM      30.01S
$$

KYZ035>037-039>044-047>052-055>060-089>105-260600-
NORTHEAST KENTUCKY

CITY           SKY/WX    TMP DP  RH WIND       PRES   REMARKS
LEXINGTON      PTCLDY    69  60  73 S3        30.04R
COVINGTON      MOCLDY    66  60  81 CALM      30.02S
FRANKFORT      PTCLDY    68  61  78 CALM      30.02R
$$

KYZ054-064>069-076>088-106>120-260600-
SOUTHEAST KENTUCKY

CITY           SKY/WX    TMP DP  RH WIND       PRES   REMARKS
JACKSON        MOCLDY    65  58  78 S3        30.05S
LONDON         CLEAR     65  62  90 CALM      30.06S
SOMERSET       PTCLDY    63  63 100 CALM      30.07R
MIDDLESBORO    PTCLDY    64  63  95 CALM      30.08S
MONTICELLO     PTCLDY    62  61  97 CALM      30.07R FOG
$$




USA.gov is the U.S. government's official web portal to all federal, state and local government web resources and services.